Weather History for KLOZ - January, 2014

Change the Weather History Date:

Thursday, January 30, 2014

  Actual Average Record
Temperature  
Mean Temperature 21 °F 36 °F  
Max Temperature 39 °F 46 °F 72 °F (2002)
Min Temperature 3 °F 27 °F -13 °F (1966)
Degree Days  
Heating Degree Days 44 29  
Month to date heating degree days 1093 887  
Since 1 July heating degree days 2700 2539  
Cooling Degree Days 0 0  
Month to date cooling degree days 0 0  
Year to date cooling degree days 0 0  
Moisture  
Dew Point 2 °F    
Average Humidity 52    
Maximum Humidity 83    
Minimum Humidity 21    
Precipitation  
Precipitation 0.00 in 0.12 in 1.71 in (2013)
Month to date precipitation 2.28 3.41  
Year to date precipitation 2.28 3.41  
Sea Level Pressure  
Sea Level Pressure 30.23 in    
Wind  
Wind Speed 6 mph (South)    
Max Wind Speed 16 mph    
Max Gust Speed 23 mph    
Visibility 10 miles    
Events      
T = Trace of Precipitation, MM = Missing Value Source: NWS Daily Summary

Daily Weather History Graph

Daily Weather History Graph

Search for Another Location

Airport or City:

Trip Planner

Search our weather history database for the weather conditions in past years. The results will help you decide how hot, cold, wet, or windy it might be!

Date:

Astronomy

Jan. 30, 2014 Rise Set
Actual Time 7:40 AM EST 5:59 PM EST
Civil Twilight 7:13 AM EST 6:26 PM EST
Nautical Twilight 6:41 AM EST 6:57 PM EST
Astronomical Twilight 6:11 AM EST 7:28 PM EST
Moon 7:06 AM EST (1/30) 6:08 PM EST (1/30)
Length of Visible Light 11h 13m
Length of Day
10h 18m
Waning Crescent, 0% of the Moon is Illuminated
Jan 30
Waning Crescent
Jan 30
New
Feb 6
First Quarter
Feb 14
Full
Feb 22
Last Quarter

Hourly Weather History & Observations

Time (EST) Temp. Windchill Dew Point Humidity Pressure Visibility Wind Dir Wind Speed Gust Speed Precip Events Conditions
12:53 AM 8.1 °F - 1.0 °F 73% 30.36 in 10.0 mi Calm Calm - N/A   Clear
1:53 AM 7.0 °F - 1.0 °F 77% 30.35 in 10.0 mi Calm Calm - N/A   Clear
2:53 AM 7.0 °F - -0.0 °F 73% 30.36 in 10.0 mi Calm Calm - N/A   Clear
3:53 AM 5.0 °F - -0.9 °F 76% 30.35 in 10.0 mi Calm Calm - N/A   Clear
4:53 AM 5.0 °F - -0.9 °F 76% 30.35 in 10.0 mi Calm Calm - N/A   Clear
5:53 AM 3.9 °F - -2.0 °F 76% 30.33 in 10.0 mi Calm Calm - N/A   Clear
6:53 AM 3.9 °F -3.4 °F -2.0 °F 76% 30.33 in 10.0 mi South 3.5 mph - N/A   Clear
7:53 AM 3.9 °F - -2.0 °F 76% 30.33 in 10.0 mi Calm Calm - N/A   Clear
8:53 AM 10.9 °F - 3.0 °F 70% 30.33 in 10.0 mi Calm Calm - N/A   Clear
9:53 AM 18.0 °F 11.1 °F 3.9 °F 54% 30.32 in 10.0 mi South 4.6 mph - N/A   Clear
10:53 AM 24.1 °F 17.0 °F 3.9 °F 42% 30.32 in 10.0 mi SSW 5.8 mph - N/A   Clear
11:53 AM 30.0 °F 21.7 °F 3.0 °F 32% 30.30 in 10.0 mi South 9.2 mph - N/A   Clear
12:53 PM 33.1 °F 24.4 °F 1.9 °F 27% 30.25 in 10.0 mi SSW 11.5 mph - N/A   Clear
1:53 PM 35.1 °F 25.9 °F 1.9 °F 25% 30.16 in 10.0 mi South 13.8 mph - N/A   Clear
2:53 PM 37.9 °F 29.2 °F 1.9 °F 22% 30.12 in 10.0 mi South 15.0 mph 23.0 mph N/A   Clear
3:53 PM 37.9 °F 30.5 °F 3.9 °F 24% 30.12 in 10.0 mi South 11.5 mph 19.6 mph N/A   Clear
4:53 PM 37.9 °F 32.7 °F 3.9 °F 24% 30.10 in 10.0 mi South 6.9 mph - N/A   Clear
5:53 PM 36.0 °F 29.6 °F 1.9 °F 24% 30.12 in 10.0 mi South 8.1 mph - N/A   Clear
6:53 PM 34.0 °F 28.0 °F 1.9 °F 26% 30.09 in 10.0 mi South 6.9 mph - N/A   Clear
7:53 PM 34.0 °F 26.6 °F 3.0 °F 27% 30.10 in 10.0 mi South 9.2 mph - N/A   Clear
8:53 PM 34.0 °F 28.8 °F 3.0 °F 27% 30.10 in 10.0 mi South 5.8 mph - N/A   Clear
9:53 PM 34.0 °F 28.0 °F 5.0 °F 30% 30.10 in 10.0 mi South 6.9 mph - N/A   Clear
10:53 PM 34.0 °F 26.0 °F 6.1 °F 31% 30.09 in 10.0 mi South 10.4 mph - N/A   Clear
11:53 PM 33.1 °F 28.7 °F 7.0 °F 34% 30.09 in 10.0 mi South 4.6 mph - N/A   Clear